Location: Mexico
(19.4000°N, 99.1500°W)
Time: 17:07:54
(UTC-06:00)

ISS - Pass Details

Date: 19 July 2019
Orbit: 409 x 418 km, 51.6° (Epoch: 23 July)

Event Time Altitude Azimuth Distance (km) Brightness Sun altitude
Rises 05:19:23 0° 315° (NW) 2,326 -0.2 -11.3°
Reaches altitude 10° 05:21:30 10° 309° (NW) 1,464 -1.2 -10.9°
Maximum altitude 05:24:42 50° 233° (SW) 526 -3.7 -10.2°
Drops below altitude 10° 05:27:53 10° 157° (SSE) 1,460 -1.0 -9.5°
Sets 05:29:59 0° 151° (SSE) 2,319 0.1 -9.1°
